FLOCK 4A-12 (44108 NORAD) Tracking and Keplerian Element Data

This shows tracking and keplerian element data for the satellite.

Feedback or suggestion? Click here.




ElementValue
Catalog44108
NameFLOCK 4A-12
Epoch Orbit422
Epoch Day119.76726309
Epoch Year2019
RAAN180.0975
Inclination97.4589
Eccentricity0.0011085
Argument of Perigee185.9222
Mean Anonmoly315.8209
Mean Motion15.21960739
Decay Rate8.41E-06
L11 44108U 19018AE 19119.76726309 .00000841 00000-0 39949-4 0 9998
L22 44108 97.4589 180.0975 0011085 185.9222 315.8209 15.21960739 4224

Live tracking and technical data element details for FLOCK 4A-12 (NORAD 44108). FLOCK 4A-12 can be tracked NOW for your location showing map with azimuth and elevation plus other details from your city location.

Track the satellite on the map from your city or location and see movement details for azimuth, elevation, latitude, longitude, range, height, and movement on the map or in text.







IsCatalogInMostPopularTable: catalog: 44108, numindb: 21
Update: records affected: 1



GetName: 44108 FLOCK 4A-12

Hit Count: updated at: Mon, 22 Jul 2019 16:46:01 GMT